Year,Month,Day,Hour,Minute,Value (Times are PST for temperature in C)
2007,05,22,00,00,9.80
2007,05,22,00,01,9.80
2007,05,22,00,02,9.80
2007,05,22,00,03,9.80
2007,05,22,00,04,9.80
2007,05,22,00,05,9.80
2007,05,22,00,06,9.80
2007,05,22,00,07,9.80
2007,05,22,00,08,9.80
2007,05,22,00,09,9.80
2007,05,22,00,10,9.80
2007,05,22,00,11,9.80
2007,05,22,00,12,9.80
2007,05,22,00,13,9.80
2007,05,22,00,14,9.80
2007,05,22,00,15,9.80
2007,05,22,00,16,9.80
2007,05,22,00,17,9.80
2007,05,22,00,18,9.80
2007,05,22,00,19,9.80
2007,05,22,00,20,9.80
2007,05,22,00,21,9.80
2007,05,22,00,22,9.80
2007,05,22,00,23,9.80
2007,05,22,00,24,9.80
2007,05,22,00,25,9.80
2007,05,22,00,26,9.70
2007,05,22,00,27,9.70
2007,05,22,00,28,9.70
2007,05,22,00,29,9.70
2007,05,22,00,30,9.70
2007,05,22,00,31,9.70
2007,05,22,00,32,9.60
2007,05,22,00,33,9.60
2007,05,22,00,34,9.60
2007,05,22,00,35,9.60
2007,05,22,00,36,9.60
2007,05,22,00,37,9.60
2007,05,22,00,38,9.60
2007,05,22,00,39,9.60
2007,05,22,00,40,9.50
2007,05,22,00,41,9.50
2007,05,22,00,42,9.50
2007,05,22,00,43,9.50
2007,05,22,00,44,9.50
2007,05,22,00,45,9.40
2007,05,22,00,46,9.40
2007,05,22,00,47,9.40
2007,05,22,00,48,9.40
2007,05,22,00,49,9.40
2007,05,22,00,50,9.40
2007,05,22,00,51,9.40
2007,05,22,00,52,9.40
2007,05,22,00,53,9.40
2007,05,22,00,54,9.40
2007,05,22,00,55,9.40
2007,05,22,00,56,9.40
2007,05,22,00,57,9.40
2007,05,22,00,58,9.40
2007,05,22,00,59,9.40
2007,05,22,01,00,9.30
2007,05,22,01,01,9.30
2007,05,22,01,02,9.30
2007,05,22,01,03,9.30
2007,05,22,01,04,9.30
2007,05,22,01,05,9.20
2007,05,22,01,06,9.20
2007,05,22,01,07,9.10
2007,05,22,01,08,9.10
2007,05,22,01,09,9.00
2007,05,22,01,10,8.90
2007,05,22,01,11,8.90
2007,05,22,01,12,8.80
2007,05,22,01,13,8.70
2007,05,22,01,14,8.70
2007,05,22,01,15,8.60
2007,05,22,01,16,8.60
2007,05,22,01,17,8.50
2007,05,22,01,18,8.40
2007,05,22,01,19,8.40
2007,05,22,01,20,8.30
2007,05,22,01,21,8.20
2007,05,22,01,22,8.20
2007,05,22,01,23,8.10
2007,05,22,01,24,8.10
2007,05,22,01,25,8.00
2007,05,22,01,26,8.00
2007,05,22,01,27,7.90
2007,05,22,01,28,7.90
2007,05,22,01,29,7.90
2007,05,22,01,30,7.80
2007,05,22,01,31,7.80
2007,05,22,01,32,7.80
2007,05,22,01,33,7.80
2007,05,22,01,34,7.80
2007,05,22,01,35,7.80
2007,05,22,01,36,7.80
2007,05,22,01,37,7.70
2007,05,22,01,38,7.70
2007,05,22,01,39,7.70
2007,05,22,01,40,7.60
2007,05,22,01,41,7.60
2007,05,22,01,42,7.50
2007,05,22,01,43,7.50
2007,05,22,01,44,7.50
2007,05,22,01,45,7.40
2007,05,22,01,46,7.40
2007,05,22,01,47,7.40
2007,05,22,01,48,7.40
2007,05,22,01,49,7.40
2007,05,22,01,50,7.40
2007,05,22,01,51,7.40
2007,05,22,01,52,7.40
2007,05,22,01,53,7.30
2007,05,22,01,54,7.30
2007,05,22,01,55,7.20
2007,05,22,01,56,7.20
2007,05,22,01,57,7.20
2007,05,22,01,58,7.20
2007,05,22,01,59,7.20
2007,05,22,02,00,7.10
2007,05,22,02,01,7.10
2007,05,22,02,02,7.10
2007,05,22,02,03,7.10
2007,05,22,02,04,7.10
2007,05,22,02,05,7.10
2007,05,22,02,06,7.00
2007,05,22,02,07,7.00
2007,05,22,02,08,7.00
2007,05,22,02,09,7.00
2007,05,22,02,10,7.00
2007,05,22,02,11,7.00
2007,05,22,02,12,7.00
2007,05,22,02,13,7.00
2007,05,22,02,14,7.00
2007,05,22,02,15,7.00
2007,05,22,02,16,7.00
2007,05,22,02,17,7.00
2007,05,22,02,18,7.00
2007,05,22,02,19,7.00
2007,05,22,02,20,7.00
2007,05,22,02,21,7.00
2007,05,22,02,22,6.90
2007,05,22,02,23,6.90
2007,05,22,02,24,6.90
2007,05,22,02,25,6.90
2007,05,22,02,26,6.80
2007,05,22,02,27,6.80
2007,05,22,02,28,6.80
2007,05,22,02,29,6.80
2007,05,22,02,30,6.70
2007,05,22,02,31,6.70
2007,05,22,02,32,6.70
2007,05,22,02,33,6.70
2007,05,22,02,34,6.70
2007,05,22,02,35,6.70
2007,05,22,02,36,6.60
2007,05,22,02,37,6.60
2007,05,22,02,38,6.60
2007,05,22,02,39,6.60
2007,05,22,02,40,6.60
2007,05,22,02,41,6.50
2007,05,22,02,42,6.50
2007,05,22,02,43,6.50
2007,05,22,02,44,6.40
2007,05,22,02,45,6.40
2007,05,22,02,46,6.40
2007,05,22,02,47,6.30
2007,05,22,02,48,6.30
2007,05,22,02,49,6.30
2007,05,22,02,50,6.30
2007,05,22,02,51,6.30
2007,05,22,02,52,6.30
2007,05,22,02,53,6.20
2007,05,22,02,54,6.20
2007,05,22,02,55,6.20
2007,05,22,02,56,6.20
2007,05,22,02,57,6.10
2007,05,22,02,58,6.10
2007,05,22,02,59,6.10
2007,05,22,03,00,6.10
2007,05,22,03,01,6.10
2007,05,22,03,02,6.10
2007,05,22,03,03,6.10
2007,05,22,03,04,6.10
2007,05,22,03,05,6.10
2007,05,22,03,06,6.10
2007,05,22,03,07,6.10
2007,05,22,03,08,6.10
2007,05,22,03,09,6.10
2007,05,22,03,10,6.10
2007,05,22,03,11,6.10
2007,05,22,03,12,6.10
2007,05,22,03,13,6.10
2007,05,22,03,14,6.00
2007,05,22,03,15,6.00
2007,05,22,03,16,6.00
2007,05,22,03,17,6.00
2007,05,22,03,18,5.90
2007,05,22,03,19,6.00
2007,05,22,03,20,6.00
2007,05,22,03,21,5.90
2007,05,22,03,22,5.90
2007,05,22,03,23,5.90
2007,05,22,03,24,5.90
2007,05,22,03,25,5.90
2007,05,22,03,26,5.90
2007,05,22,03,27,5.90
2007,05,22,03,28,5.90
2007,05,22,03,29,5.90
2007,05,22,03,30,5.90
2007,05,22,03,31,5.90
2007,05,22,03,32,5.90
2007,05,22,03,33,5.90
2007,05,22,03,34,5.90
2007,05,22,03,35,5.90
2007,05,22,03,36,5.90
2007,05,22,03,37,5.90
2007,05,22,03,38,5.90
2007,05,22,03,39,5.80
2007,05,22,03,40,5.80
2007,05,22,03,41,5.80
2007,05,22,03,42,5.80
2007,05,22,03,43,5.80
2007,05,22,03,44,5.80
2007,05,22,03,45,5.80
2007,05,22,03,46,5.80
2007,05,22,03,47,5.80
2007,05,22,03,48,5.80
2007,05,22,03,49,5.80
2007,05,22,03,50,5.80
2007,05,22,03,51,5.80
2007,05,22,03,52,5.80
2007,05,22,03,53,5.90
2007,05,22,03,54,5.90
2007,05,22,03,55,5.80
2007,05,22,03,56,5.80
2007,05,22,03,57,5.80
2007,05,22,03,58,5.80
2007,05,22,03,59,5.80
2007,05,22,04,00,5.80
2007,05,22,04,01,5.80
2007,05,22,04,02,5.80
2007,05,22,04,03,5.90
2007,05,22,04,04,5.90
2007,05,22,04,05,5.90
2007,05,22,04,06,5.80
2007,05,22,04,07,5.80
2007,05,22,04,08,5.80
2007,05,22,04,09,5.80
2007,05,22,04,10,5.80
2007,05,22,04,11,5.80
2007,05,22,04,12,5.80
2007,05,22,04,13,5.80
2007,05,22,04,14,5.80
2007,05,22,04,15,5.80
2007,05,22,04,16,5.80
2007,05,22,04,17,5.80
2007,05,22,04,18,5.80
2007,05,22,04,19,5.80
2007,05,22,04,20,5.70
2007,05,22,04,21,5.70
2007,05,22,04,22,5.70
2007,05,22,04,23,5.70
2007,05,22,04,24,5.70
2007,05,22,04,25,5.70
2007,05,22,04,26,5.70
2007,05,22,04,27,5.70
2007,05,22,04,28,5.60
2007,05,22,04,29,5.70
2007,05,22,04,30,5.70
2007,05,22,04,31,5.70
2007,05,22,04,32,5.70
2007,05,22,04,33,5.60
2007,05,22,04,34,5.60
2007,05,22,04,35,5.60
2007,05,22,04,36,5.50
2007,05,22,04,37,5.50
2007,05,22,04,38,5.50
2007,05,22,04,39,5.50
2007,05,22,04,40,5.40
2007,05,22,04,41,5.40
2007,05,22,04,42,5.40
2007,05,22,04,43,5.40
2007,05,22,04,44,5.40
2007,05,22,04,45,5.40
2007,05,22,04,46,5.40
2007,05,22,04,47,5.40
2007,05,22,04,48,5.40
2007,05,22,04,49,5.40
2007,05,22,04,50,5.40
2007,05,22,04,51,5.40
2007,05,22,04,52,5.40
2007,05,22,04,53,5.40
2007,05,22,04,54,5.40
2007,05,22,04,55,5.30
2007,05,22,04,56,5.30
2007,05,22,04,57,5.30
2007,05,22,04,58,5.30
2007,05,22,04,59,5.30
2007,05,22,05,00,5.30
2007,05,22,05,01,5.30
2007,05,22,05,02,5.30
2007,05,22,05,03,5.30
2007,05,22,05,04,5.30
2007,05,22,05,05,5.30
2007,05,22,05,06,5.30
2007,05,22,05,07,5.30
2007,05,22,05,08,5.20
2007,05,22,05,09,5.20
2007,05,22,05,10,5.20
2007,05,22,05,11,5.20
2007,05,22,05,12,5.10
2007,05,22,05,13,5.10
2007,05,22,05,14,5.10
2007,05,22,05,15,5.10
2007,05,22,05,16,5.10
2007,05,22,05,17,5.10
2007,05,22,05,18,5.10
2007,05,22,05,19,5.00
2007,05,22,05,20,5.00
2007,05,22,05,21,4.90
2007,05,22,05,22,4.90
2007,05,22,05,23,4.90
2007,05,22,05,24,4.90
2007,05,22,05,25,4.90
2007,05,22,05,26,4.90
2007,05,22,05,27,4.90
2007,05,22,05,28,4.90
2007,05,22,05,29,4.90
2007,05,22,05,30,4.90
2007,05,22,05,31,4.90
2007,05,22,05,32,4.90
2007,05,22,05,33,4.90
2007,05,22,05,34,4.90
2007,05,22,05,35,4.90
2007,05,22,05,36,4.90
2007,05,22,05,37,4.80
2007,05,22,05,38,4.80
2007,05,22,05,39,4.80
2007,05,22,05,40,4.80
2007,05,22,05,41,4.80
2007,05,22,05,42,4.80
2007,05,22,05,43,4.80
2007,05,22,05,44,4.70
2007,05,22,05,45,4.70
2007,05,22,05,46,4.70
2007,05,22,05,47,4.70
2007,05,22,05,48,4.70
2007,05,22,05,49,4.70
2007,05,22,05,50,4.60
2007,05,22,05,51,4.60
2007,05,22,05,52,4.60
2007,05,22,05,53,4.60
2007,05,22,05,54,4.60
2007,05,22,05,55,4.70
2007,05,22,05,56,4.70
2007,05,22,05,57,4.70
2007,05,22,05,58,4.70
2007,05,22,05,59,4.70
2007,05,22,06,00,4.80
2007,05,22,06,01,4.80
2007,05,22,06,02,4.90
2007,05,22,06,03,5.00
2007,05,22,06,04,5.00
2007,05,22,06,05,5.10
2007,05,22,06,06,5.20
2007,05,22,06,07,5.30
2007,05,22,06,08,5.30
2007,05,22,06,09,5.40
2007,05,22,06,10,5.50
2007,05,22,06,11,5.50
2007,05,22,06,12,5.60
2007,05,22,06,13,5.60
2007,05,22,06,14,5.60
2007,05,22,06,15,5.60
2007,05,22,06,16,5.70
2007,05,22,06,17,5.70
2007,05,22,06,18,5.70
2007,05,22,06,19,5.70
2007,05,22,06,20,5.70
2007,05,22,06,21,5.70
2007,05,22,06,22,5.70
2007,05,22,06,23,5.80
2007,05,22,06,24,5.80
2007,05,22,06,25,5.80
2007,05,22,06,26,5.80
2007,05,22,06,27,5.80
2007,05,22,06,28,5.80
2007,05,22,06,29,5.90
2007,05,22,06,30,5.90
2007,05,22,06,31,5.90
2007,05,22,06,32,5.90
2007,05,22,06,33,5.90
2007,05,22,06,34,5.90
2007,05,22,06,35,6.00
2007,05,22,06,36,6.00
2007,05,22,06,37,6.10
2007,05,22,06,38,6.10
2007,05,22,06,39,6.10
2007,05,22,06,40,6.20
2007,05,22,06,41,6.20
2007,05,22,06,42,6.20
2007,05,22,06,43,6.20
2007,05,22,06,44,6.30
2007,05,22,06,45,6.30
2007,05,22,06,46,6.30
2007,05,22,06,47,6.40
2007,05,22,06,48,6.40
2007,05,22,06,49,6.50
2007,05,22,06,50,6.50
2007,05,22,06,51,6.60
2007,05,22,06,52,6.60
2007,05,22,06,53,6.70
2007,05,22,06,54,6.70
2007,05,22,06,55,6.80
2007,05,22,06,56,6.80
2007,05,22,06,57,6.90
2007,05,22,06,58,6.90
2007,05,22,06,59,7.00
2007,05,22,07,00,7.00
2007,05,22,07,01,7.10
2007,05,22,07,02,7.10
2007,05,22,07,03,7.20
2007,05,22,07,04,7.20
2007,05,22,07,05,7.30
2007,05,22,07,06,7.30
2007,05,22,07,07,7.40
2007,05,22,07,08,7.50
2007,05,22,07,09,7.50
2007,05,22,07,10,7.60
2007,05,22,07,11,7.60
2007,05,22,07,12,7.70
2007,05,22,07,13,7.70
2007,05,22,07,14,7.70
2007,05,22,07,15,7.80
2007,05,22,07,16,7.80
2007,05,22,07,17,7.80
2007,05,22,07,18,7.80
2007,05,22,07,19,7.90
2007,05,22,07,20,7.90
2007,05,22,07,21,8.00
2007,05,22,07,22,8.00
2007,05,22,07,23,8.10
2007,05,22,07,24,8.10
2007,05,22,07,25,8.10
2007,05,22,07,26,8.20
2007,05,22,07,27,8.20
2007,05,22,07,28,8.20
2007,05,22,07,29,8.20
2007,05,22,07,30,8.20
2007,05,22,07,31,8.30
2007,05,22,07,32,8.30
2007,05,22,07,33,8.30
2007,05,22,07,34,8.40
2007,05,22,07,35,8.40
2007,05,22,07,36,8.40
2007,05,22,07,37,8.50
2007,05,22,07,38,8.50
2007,05,22,07,39,8.50
2007,05,22,07,40,8.60
2007,05,22,07,41,8.60
2007,05,22,07,42,8.60
2007,05,22,07,43,8.70
2007,05,22,07,44,8.70
2007,05,22,07,45,8.80
2007,05,22,07,46,8.80
2007,05,22,07,47,8.90
2007,05,22,07,48,9.00
2007,05,22,07,49,9.00
2007,05,22,07,50,9.10
2007,05,22,07,51,9.20
2007,05,22,07,52,9.20
2007,05,22,07,53,9.30
2007,05,22,07,54,9.40
2007,05,22,07,55,9.40
2007,05,22,07,56,9.50
2007,05,22,07,57,9.60
2007,05,22,07,58,9.60
2007,05,22,07,59,9.70
2007,05,22,08,00,9.80
2007,05,22,08,01,9.80
2007,05,22,08,02,9.90
2007,05,22,08,03,10.00
2007,05,22,08,04,10.00
2007,05,22,08,05,10.10
2007,05,22,08,06,10.20
2007,05,22,08,07,10.20
2007,05,22,08,08,10.30
2007,05,22,08,09,10.30
2007,05,22,08,10,10.40
2007,05,22,08,11,10.40
2007,05,22,08,12,10.40
2007,05,22,08,13,10.50
2007,05,22,08,14,10.50
2007,05,22,08,15,10.60
2007,05,22,08,16,10.60
2007,05,22,08,17,10.60
2007,05,22,08,18,10.60
2007,05,22,08,19,10.60
2007,05,22,08,20,10.60
2007,05,22,08,21,10.70
2007,05,22,08,22,10.70
2007,05,22,08,23,10.70
2007,05,22,08,24,10.70
2007,05,22,08,25,10.70
2007,05,22,08,26,10.70
2007,05,22,08,27,10.70
2007,05,22,08,28,10.70
2007,05,22,08,29,10.80
2007,05,22,08,30,10.80
2007,05,22,08,31,10.80
2007,05,22,08,32,10.90
2007,05,22,08,33,10.90
2007,05,22,08,34,11.00
2007,05,22,08,35,11.00
2007,05,22,08,36,11.10
2007,05,22,08,37,11.10
2007,05,22,08,38,11.20
2007,05,22,08,39,11.30
2007,05,22,08,40,11.30
2007,05,22,08,41,11.30
2007,05,22,08,42,11.40
2007,05,22,08,43,11.40
2007,05,22,08,44,11.50
2007,05,22,08,45,11.50
2007,05,22,08,46,11.60
2007,05,22,08,47,11.70
2007,05,22,08,48,11.70
2007,05,22,08,49,11.80
2007,05,22,08,50,11.80
2007,05,22,08,51,11.80
2007,05,22,08,52,11.80
2007,05,22,08,53,11.90
2007,05,22,08,54,11.90
2007,05,22,08,55,12.00
2007,05,22,08,56,12.00
2007,05,22,08,57,12.10
2007,05,22,08,58,12.10
2007,05,22,08,59,12.20
2007,05,22,09,00,12.20
2007,05,22,09,01,12.30
2007,05,22,09,02,12.30
2007,05,22,09,03,12.40
2007,05,22,09,04,12.40
2007,05,22,09,05,12.40
2007,05,22,09,06,12.40
2007,05,22,09,07,12.40
2007,05,22,09,08,12.30
2007,05,22,09,09,12.40
2007,05,22,09,10,12.40
2007,05,22,09,11,12.40
2007,05,22,09,12,12.40
2007,05,22,09,13,12.40
2007,05,22,09,14,12.40
2007,05,22,09,15,12.50
2007,05,22,09,16,12.50
2007,05,22,09,17,12.60
2007,05,22,09,18,12.70
2007,05,22,09,19,12.80
2007,05,22,09,20,12.80
2007,05,22,09,21,12.90
2007,05,22,09,22,13.00
2007,05,22,09,23,13.10
2007,05,22,09,24,13.10
2007,05,22,09,25,13.20
2007,05,22,09,26,13.20
2007,05,22,09,27,13.30
2007,05,22,09,28,13.30
2007,05,22,09,29,13.50
2007,05,22,09,30,13.60
2007,05,22,09,31,13.70
2007,05,22,09,32,13.80
2007,05,22,09,33,13.80
2007,05,22,09,34,13.90
2007,05,22,09,35,14.00
2007,05,22,09,36,14.00
2007,05,22,09,37,14.10
2007,05,22,09,38,14.00
2007,05,22,09,39,13.90
2007,05,22,09,40,13.90
2007,05,22,09,41,13.90
2007,05,22,09,42,14.00
2007,05,22,09,43,14.00
2007,05,22,09,44,14.10
2007,05,22,09,45,14.30
2007,05,22,09,46,14.40
2007,05,22,09,47,14.50
2007,05,22,09,48,14.50
2007,05,22,09,49,14.60
2007,05,22,09,50,14.60
2007,05,22,09,51,14.60
2007,05,22,09,52,14.40
2007,05,22,09,53,14.30
2007,05,22,09,54,14.20
2007,05,22,09,55,14.10
2007,05,22,09,56,14.10
2007,05,22,09,57,14.10
2007,05,22,09,58,14.10
2007,05,22,09,59,14.20
2007,05,22,10,00,14.30
2007,05,22,10,01,14.40
2007,05,22,10,02,14.50
2007,05,22,10,03,14.60
2007,05,22,10,04,14.70
2007,05,22,10,05,14.80
2007,05,22,10,06,14.80
2007,05,22,10,07,14.80
2007,05,22,10,08,14.70
2007,05,22,10,09,14.80
2007,05,22,10,10,14.80
2007,05,22,10,11,14.80
2007,05,22,10,12,14.90
2007,05,22,10,13,15.00
2007,05,22,10,14,15.00
2007,05,22,10,15,15.00
2007,05,22,10,16,15.00
2007,05,22,10,17,15.10
2007,05,22,10,18,15.20
2007,05,22,10,19,15.30
2007,05,22,10,20,15.40
2007,05,22,10,21,15.40
2007,05,22,10,22,15.40
2007,05,22,10,23,15.40
2007,05,22,10,24,15.50
2007,05,22,10,25,15.30
2007,05,22,10,26,15.00
2007,05,22,10,27,15.00
2007,05,22,10,28,14.90
2007,05,22,10,29,14.80
2007,05,22,10,30,14.70
2007,05,22,10,31,14.50
2007,05,22,10,32,14.50
2007,05,22,10,33,14.40
2007,05,22,10,34,14.30
2007,05,22,10,35,14.30
2007,05,22,10,36,14.30
2007,05,22,10,37,14.30
2007,05,22,10,38,14.30
2007,05,22,10,39,14.30
2007,05,22,10,40,14.30
2007,05,22,10,41,14.50
2007,05,22,10,42,14.70
2007,05,22,10,43,14.80
2007,05,22,10,44,15.00
2007,05,22,10,45,15.00
2007,05,22,10,46,15.00
2007,05,22,10,47,15.10
2007,05,22,10,48,15.10
2007,05,22,10,49,15.00
2007,05,22,10,50,15.00
2007,05,22,10,51,15.00
2007,05,22,10,52,15.00
2007,05,22,10,53,15.00
2007,05,22,10,54,15.00
2007,05,22,10,55,15.20
2007,05,22,10,56,15.30
2007,05,22,10,57,15.40
2007,05,22,10,58,15.50
2007,05,22,10,59,15.60
2007,05,22,11,00,15.60
2007,05,22,11,01,15.60
2007,05,22,11,02,15.60
2007,05,22,11,03,15.60
2007,05,22,11,04,15.60
2007,05,22,11,05,15.70
2007,05,22,11,06,15.70
2007,05,22,11,07,15.70
2007,05,22,11,08,15.80
2007,05,22,11,09,15.90
2007,05,22,11,10,15.90
2007,05,22,11,11,15.90
2007,05,22,11,12,15.80
2007,05,22,11,13,15.70
2007,05,22,11,14,15.70
2007,05,22,11,15,15.70
2007,05,22,11,16,15.70
2007,05,22,11,17,15.70
2007,05,22,11,18,15.60
2007,05,22,11,19,15.40
2007,05,22,11,20,15.30
2007,05,22,11,21,15.20
2007,05,22,11,22,15.20
2007,05,22,11,23,15.20
2007,05,22,11,24,15.30
2007,05,22,11,25,15.30
2007,05,22,11,26,15.30
2007,05,22,11,27,15.20
2007,05,22,11,28,15.10
2007,05,22,11,29,15.00
2007,05,22,11,30,15.00
2007,05,22,11,31,15.00
2007,05,22,11,32,15.10
2007,05,22,11,33,15.20
2007,05,22,11,34,15.30
2007,05,22,11,35,15.40
2007,05,22,11,36,15.50
2007,05,22,11,37,15.60
2007,05,22,11,38,15.60
2007,05,22,11,39,15.60
2007,05,22,11,40,15.50
2007,05,22,11,41,15.40
2007,05,22,11,42,15.40
2007,05,22,11,43,15.30
2007,05,22,11,44,15.00
2007,05,22,11,45,15.00
2007,05,22,11,46,15.00
2007,05,22,11,47,15.00
2007,05,22,11,48,15.00
2007,05,22,11,49,15.00
2007,05,22,11,50,14.80
2007,05,22,11,51,14.80
2007,05,22,11,52,14.70
2007,05,22,11,53,14.60
2007,05,22,11,54,14.50
2007,05,22,11,55,14.50
2007,05,22,11,56,14.40
2007,05,22,11,57,14.40
2007,05,22,11,58,14.40
2007,05,22,11,59,14.50
2007,05,22,12,00,14.60
2007,05,22,12,01,14.70
2007,05,22,12,02,14.90
2007,05,22,12,03,15.00
2007,05,22,12,04,15.00
2007,05,22,12,05,15.00
2007,05,22,12,06,15.00
2007,05,22,12,07,15.00
2007,05,22,12,08,15.00
2007,05,22,12,09,15.00
2007,05,22,12,10,15.00
2007,05,22,12,11,15.00
2007,05,22,12,12,15.00
2007,05,22,12,13,15.00
2007,05,22,12,14,15.00
2007,05,22,12,15,15.00
2007,05,22,12,16,15.00
2007,05,22,12,17,15.00
2007,05,22,12,18,15.00
2007,05,22,12,19,15.00
2007,05,22,12,20,15.00
2007,05,22,12,21,15.10
2007,05,22,12,22,15.10
2007,05,22,12,23,15.00
2007,05,22,12,24,15.00
2007,05,22,12,25,15.00
2007,05,22,12,26,15.20
2007,05,22,12,27,15.30
2007,05,22,12,28,15.40
2007,05,22,12,29,15.50
2007,05,22,12,30,15.40
2007,05,22,12,31,15.40
2007,05,22,12,32,15.30
2007,05,22,12,33,15.20
2007,05,22,12,34,15.30
2007,05,22,12,35,15.30
2007,05,22,12,36,15.30
2007,05,22,12,37,15.30
2007,05,22,12,38,15.50
2007,05,22,12,39,15.60
2007,05,22,12,40,15.40
2007,05,22,12,41,15.20
2007,05,22,12,42,15.00
2007,05,22,12,43,14.90
2007,05,22,12,44,14.70
2007,05,22,12,45,14.60
2007,05,22,12,46,14.60
2007,05,22,12,47,14.60
2007,05,22,12,48,14.70
2007,05,22,12,49,14.60
2007,05,22,12,50,14.60
2007,05,22,12,51,14.50
2007,05,22,12,52,14.50
2007,05,22,12,53,14.40
2007,05,22,12,54,14.40
2007,05,22,12,55,14.40
2007,05,22,12,56,14.50
2007,05,22,12,57,14.50
2007,05,22,12,58,14.40
2007,05,22,12,59,14.30
2007,05,22,13,00,14.30
2007,05,22,13,01,14.20
2007,05,22,13,02,14.20
2007,05,22,13,03,14.20
2007,05,22,13,04,14.20
2007,05,22,13,05,14.20
2007,05,22,13,06,14.30
2007,05,22,13,07,14.30
2007,05,22,13,08,14.30
2007,05,22,13,09,14.30
2007,05,22,13,10,14.20
2007,05,22,13,11,14.20
2007,05,22,13,12,14.20
2007,05,22,13,13,14.20
2007,05,22,13,14,14.20
2007,05,22,13,15,14.20
2007,05,22,13,16,14.20
2007,05,22,13,17,14.10
2007,05,22,13,18,14.10
2007,05,22,13,19,14.20
2007,05,22,13,20,14.10
2007,05,22,13,21,14.20
2007,05,22,13,22,14.20
2007,05,22,13,23,14.20
2007,05,22,13,24,14.10
2007,05,22,13,25,14.00
2007,05,22,13,26,14.00
2007,05,22,13,27,13.90
2007,05,22,13,28,13.90
2007,05,22,13,29,13.90
2007,05,22,13,30,13.80
2007,05,22,13,31,13.80
2007,05,22,13,32,13.90
2007,05,22,13,33,13.90
2007,05,22,13,34,14.00
2007,05,22,13,35,14.10
2007,05,22,13,36,14.20
2007,05,22,13,37,14.10
2007,05,22,13,38,14.00
2007,05,22,13,39,14.00
2007,05,22,13,40,14.00
2007,05,22,13,41,14.00
2007,05,22,13,42,14.10
2007,05,22,13,43,14.20
2007,05,22,13,44,14.30
2007,05,22,13,45,14.30
2007,05,22,13,46,14.30
2007,05,22,13,47,14.30
2007,05,22,13,48,14.50
2007,05,22,13,49,14.60
2007,05,22,13,50,14.60
2007,05,22,13,51,14.60
2007,05,22,13,52,14.50
2007,05,22,13,53,14.40
2007,05,22,13,54,14.40
2007,05,22,13,55,14.40
2007,05,22,13,56,14.30
2007,05,22,13,57,14.30
2007,05,22,13,58,14.30
2007,05,22,13,59,14.30
2007,05,22,14,00,14.30
2007,05,22,14,01,14.50
2007,05,22,14,02,14.60
2007,05,22,14,03,14.80
2007,05,22,14,04,14.80
2007,05,22,14,05,14.80
2007,05,22,14,06,14.70
2007,05,22,14,07,14.50
2007,05,22,14,08,14.40
2007,05,22,14,09,14.40
2007,05,22,14,10,14.40
2007,05,22,14,11,14.40
2007,05,22,14,12,14.50
2007,05,22,14,13,14.40
2007,05,22,14,14,14.30
2007,05,22,14,15,14.30
2007,05,22,14,16,14.30
2007,05,22,14,17,14.30
2007,05,22,14,18,14.30
2007,05,22,14,19,14.10
2007,05,22,14,20,14.10
2007,05,22,14,21,14.00
2007,05,22,14,22,14.00
2007,05,22,14,23,14.00
2007,05,22,14,24,14.10
2007,05,22,14,25,14.10
2007,05,22,14,26,14.20
2007,05,22,14,27,14.20
2007,05,22,14,28,14.20
2007,05,22,14,29,14.10
2007,05,22,14,30,14.20
2007,05,22,14,31,14.20
2007,05,22,14,32,14.20
2007,05,22,14,33,14.20
2007,05,22,14,34,14.10
2007,05,22,14,35,14.00
2007,05,22,14,36,13.90
2007,05,22,14,37,13.90
2007,05,22,14,38,14.10
2007,05,22,14,39,14.20
2007,05,22,14,40,14.30
2007,05,22,14,41,14.50
2007,05,22,14,42,14.60
2007,05,22,14,43,14.70
2007,05,22,14,44,14.70
2007,05,22,14,45,14.70
2007,05,22,14,46,14.90
2007,05,22,14,47,15.00
2007,05,22,14,48,15.00
2007,05,22,14,49,15.00
2007,05,22,14,50,15.00
2007,05,22,14,51,15.00
2007,05,22,14,52,15.00
2007,05,22,14,53,14.80
2007,05,22,14,54,14.70
2007,05,22,14,55,14.50
2007,05,22,14,56,14.30
2007,05,22,14,57,14.20
2007,05,22,14,58,14.20
2007,05,22,14,59,14.30
2007,05,22,15,00,14.40
2007,05,22,15,01,14.40
2007,05,22,15,02,14.30
2007,05,22,15,03,14.30
2007,05,22,15,04,14.30
2007,05,22,15,05,14.30
2007,05,22,15,06,14.20
2007,05,22,15,07,14.10
2007,05,22,15,08,14.10
2007,05,22,15,09,14.10
2007,05,22,15,10,14.00
2007,05,22,15,11,13.90
2007,05,22,15,12,13.90
2007,05,22,15,13,13.90
2007,05,22,15,14,13.90
2007,05,22,15,15,14.00
2007,05,22,15,16,14.20
2007,05,22,15,17,14.30
2007,05,22,15,18,14.40
2007,05,22,15,19,14.40
2007,05,22,15,20,14.30
2007,05,22,15,21,14.30
2007,05,22,15,22,14.30
2007,05,22,15,23,14.30
2007,05,22,15,24,14.40
2007,05,22,15,25,14.40
2007,05,22,15,26,14.40
2007,05,22,15,27,14.50
2007,05,22,15,28,14.80
2007,05,22,15,29,14.90
2007,05,22,15,30,14.80
2007,05,22,15,31,14.70
2007,05,22,15,32,14.70
2007,05,22,15,33,14.60
2007,05,22,15,34,14.50
2007,05,22,15,35,14.60
2007,05,22,15,36,14.60
2007,05,22,15,37,14.70
2007,05,22,15,38,14.70
2007,05,22,15,39,14.70
2007,05,22,15,40,14.70
2007,05,22,15,41,14.70
2007,05,22,15,42,14.70
2007,05,22,15,43,14.70
2007,05,22,15,44,14.80
2007,05,22,15,45,15.00
2007,05,22,15,46,15.00
2007,05,22,15,47,15.10
2007,05,22,15,48,15.20
2007,05,22,15,49,15.20
2007,05,22,15,50,15.30
2007,05,22,15,51,15.10
2007,05,22,15,52,15.00
2007,05,22,15,53,15.00
2007,05,22,15,54,14.90
2007,05,22,15,55,14.80
2007,05,22,15,56,14.90
2007,05,22,15,57,15.00
2007,05,22,15,58,15.00
2007,05,22,15,59,14.80
2007,05,22,16,00,14.70
2007,05,22,16,01,14.70
2007,05,22,16,02,14.80
2007,05,22,16,03,14.80
2007,05,22,16,04,14.80
2007,05,22,16,05,14.80
2007,05,22,16,06,14.70
2007,05,22,16,07,14.70
2007,05,22,16,08,14.70
2007,05,22,16,09,14.80
2007,05,22,16,10,14.80
2007,05,22,16,11,14.80
2007,05,22,16,12,14.80
2007,05,22,16,13,14.80
2007,05,22,16,14,14.70
2007,05,22,16,15,14.80
2007,05,22,16,16,14.90
2007,05,22,16,17,15.00
2007,05,22,16,18,15.00
2007,05,22,16,19,15.00
2007,05,22,16,20,14.90
2007,05,22,16,21,14.80
2007,05,22,16,22,14.80
2007,05,22,16,23,14.70
2007,05,22,16,24,14.80
2007,05,22,16,25,14.80
2007,05,22,16,26,14.90
2007,05,22,16,27,14.90
2007,05,22,16,28,15.00
2007,05,22,16,29,15.00
2007,05,22,16,30,15.00
2007,05,22,16,31,15.00
2007,05,22,16,32,15.10
2007,05,22,16,33,15.10
2007,05,22,16,34,15.20
2007,05,22,16,35,15.20
2007,05,22,16,36,15.40
2007,05,22,16,37,15.60
2007,05,22,16,38,15.60
2007,05,22,16,39,15.50
2007,05,22,16,40,15.40
2007,05,22,16,41,15.40
2007,05,22,16,42,15.30
2007,05,22,16,43,15.40
2007,05,22,16,44,15.50
2007,05,22,16,45,15.60
2007,05,22,16,46,15.70
2007,05,22,16,47,15.80
2007,05,22,16,48,15.80
2007,05,22,16,49,15.90
2007,05,22,16,50,16.00
2007,05,22,16,51,16.10
2007,05,22,16,52,16.10
2007,05,22,16,53,16.10
2007,05,22,16,54,16.20
2007,05,22,16,55,16.20
2007,05,22,16,56,16.10
2007,05,22,16,57,16.10
2007,05,22,16,58,16.10
2007,05,22,16,59,16.00
2007,05,22,17,00,16.00
2007,05,22,17,01,16.10
2007,05,22,17,02,16.10
2007,05,22,17,03,16.30
2007,05,22,17,04,16.40
2007,05,22,17,05,16.40
2007,05,22,17,06,16.30
2007,05,22,17,07,16.20
2007,05,22,17,08,16.20
2007,05,22,17,09,16.10
2007,05,22,17,10,16.00
2007,05,22,17,11,15.90
2007,05,22,17,12,15.80
2007,05,22,17,13,15.90
2007,05,22,17,14,16.00
2007,05,22,17,15,16.00
2007,05,22,17,16,16.10
2007,05,22,17,17,16.10
2007,05,22,17,18,16.20
2007,05,22,17,19,16.20
2007,05,22,17,20,16.20
2007,05,22,17,21,16.30
2007,05,22,17,22,16.40
2007,05,22,17,23,16.40
2007,05,22,17,24,16.40
2007,05,22,17,25,16.40
2007,05,22,17,26,16.40
2007,05,22,17,27,16.30
2007,05,22,17,28,16.30
2007,05,22,17,29,16.20
2007,05,22,17,30,16.20
2007,05,22,17,31,16.30
2007,05,22,17,32,16.50
2007,05,22,17,33,16.60
2007,05,22,17,34,16.60
2007,05,22,17,35,16.60
2007,05,22,17,36,16.60
2007,05,22,17,37,16.60
2007,05,22,17,38,16.70
2007,05,22,17,39,16.60
2007,05,22,17,40,16.60